Time,TemperatureF,DewpointF,PressureIn,WindDirection,WindDirectionDegrees,WindSpeedMPH,WindSpeedGustMPH,Humidity,HourlyPrecipIn,Conditions,Clouds,dailyrainin,SoftwareType,DateUTC
2013-08-24 00:01:00,66.0,63.0,0.00,North,10,0.0,0.0,90,0.00,,---,0.00,VWS V13.01,2013-08-24 04:01:00,
2013-08-24 00:02:00,66.0,63.0,0.00,North,10,0.0,0.0,90,0.00,,---,0.00,VWS V13.01,2013-08-24 04:02:00,
2013-08-24 00:03:00,66.0,63.0,0.00,North,10,0.0,0.0,90,0.00,,---,0.00,VWS V13.01,2013-08-24 04:03:00,
2013-08-24 00:08:00,66.0,63.0,0.00,NNE,26,0.0,0.0,90,0.00,,---,0.00,VWS V13.01,2013-08-24 04:08:00,
2013-08-24 00:13:00,66.0,63.0,0.00,NNE,26,0.0,0.0,90,0.00,,---,0.00,VWS V13.01,2013-08-24 04:13:00,
2013-08-24 00:18:00,66.2,63.2,0.00,NNE,26,0.0,0.0,90,0.00,,---,0.00,VWS V13.01,2013-08-24 04:18:00,
2013-08-24 00:23:00,66.2,63.2,0.00,NNE,26,0.0,0.0,90,0.00,,---,0.00,VWS V13.01,2013-08-24 04:23:00,
2013-08-24 00:28:00,66.2,63.2,0.00,NNE,26,0.0,0.0,90,0.00,,---,0.00,VWS V13.01,2013-08-24 04:28:00,
2013-08-24 00:33:00,66.2,63.2,0.00,NNE,26,0.0,0.0,90,0.00,,---,0.00,VWS V13.01,2013-08-24 04:33:00,
2013-08-24 00:38:00,66.2,63.2,0.00,NNE,26,0.0,2.7,90,0.00,,---,0.00,VWS V13.01,2013-08-24 04:38:00,
2013-08-24 00:43:00,66.2,63.2,0.00,NNE,26,0.0,0.0,90,0.00,,---,0.00,VWS V13.01,2013-08-24 04:43:00,
2013-08-24 00:48:00,66.2,63.2,0.00,NNE,26,0.0,0.0,90,0.00,,---,0.00,VWS V13.01,2013-08-24 04:48:00,
2013-08-24 00:54:00,66.2,63.2,0.00,NNE,26,0.0,0.0,90,0.00,,---,0.00,VWS V13.01,2013-08-24 04:54:00,
2013-08-24 00:59:00,66.2,63.5,0.00,NNE,26,0.0,2.2,91,0.00,,---,0.00,VWS V13.01,2013-08-24 04:59:00,
2013-08-24 01:04:00,66.2,63.5,0.00,NE,40,0.0,2.7,91,0.00,,---,0.00,VWS V13.01,2013-08-24 05:04:00,
2013-08-24 01:09:00,66.2,63.5,0.00,NNE,17,0.0,2.7,91,0.00,,---,0.00,VWS V13.01,2013-08-24 05:09:00,
2013-08-24 01:14:00,66.2,63.5,0.00,NNE,17,0.0,2.7,91,0.00,,---,0.00,VWS V13.01,2013-08-24 05:14:00,
2013-08-24 01:19:00,66.2,63.5,0.00,NNE,25,0.0,2.7,91,0.00,,---,0.00,VWS V13.01,2013-08-24 05:19:00,
2013-08-24 01:24:00,66.2,63.5,0.00,NNE,25,0.0,0.0,91,0.00,,---,0.00,VWS V13.01,2013-08-24 05:24:00,
2013-08-24 01:29:00,66.2,63.5,0.00,NNE,25,0.0,2.7,91,0.00,,---,0.00,VWS V13.01,2013-08-24 05:29:00,
2013-08-24 01:34:00,66.2,63.5,0.00,NNE,30,0.0,2.7,91,0.00,,---,0.00,VWS V13.01,2013-08-24 05:34:00,
2013-08-24 01:39:00,66.0,63.3,0.00,NNE,30,0.0,2.7,91,0.00,,---,0.00,VWS V13.01,2013-08-24 05:39:00,
2013-08-24 01:44:00,66.0,63.3,0.00,NNE,30,0.0,3.6,91,0.00,,---,0.00,VWS V13.01,2013-08-24 05:44:00,
2013-08-24 01:49:00,66.0,63.3,0.00,North,357,0.0,3.6,91,0.00,,---,0.00,VWS V13.01,2013-08-24 05:49:00,
2013-08-24 01:54:00,66.0,63.3,0.00,NNE,24,0.0,3.6,91,0.00,,---,0.00,VWS V13.01,2013-08-24 05:54:00,
2013-08-24 01:59:00,65.8,63.1,0.00,NNE,24,0.0,3.6,91,0.00,,---,0.00,VWS V13.01,2013-08-24 05:59:00,
2013-08-24 02:04:00,65.8,63.1,0.00,NNE,25,0.0,0.0,91,0.00,,---,0.00,VWS V13.01,2013-08-24 06:04:00,
2013-08-24 02:10:00,65.8,63.1,0.00,NNE,25,0.0,0.0,91,0.00,,---,0.00,VWS V13.01,2013-08-24 06:10:00,
2013-08-24 02:15:00,65.7,63.0,0.00,NNE,25,0.0,0.0,91,0.00,,---,0.00,VWS V13.01,2013-08-24 06:15:00,
2013-08-24 02:20:00,65.7,63.0,0.00,NNE,25,0.0,0.0,91,0.00,,---,0.00,VWS V13.01,2013-08-24 06:20:00,
2013-08-24 02:25:00,65.7,63.0,0.00,NNE,25,0.0,0.0,91,0.00,,---,0.00,VWS V13.01,2013-08-24 06:25:00,
2013-08-24 02:30:00,65.5,62.8,0.00,NNE,24,0.0,0.0,91,0.00,,---,0.00,VWS V13.01,2013-08-24 06:30:00,
2013-08-24 02:35:00,65.5,62.8,0.00,NNE,25,0.0,0.0,91,0.00,,---,0.00,VWS V13.01,2013-08-24 06:35:00,
2013-08-24 02:40:00,65.5,62.8,0.00,NNE,25,0.0,0.0,91,0.00,,---,0.00,VWS V13.01,2013-08-24 06:40:00,
2013-08-24 02:45:00,65.3,62.6,0.00,NNE,25,0.0,0.0,91,0.00,,---,0.00,VWS V13.01,2013-08-24 06:45:00,
2013-08-24 02:50:00,65.3,62.6,0.00,NNE,25,0.0,0.0,91,0.00,,---,0.00,VWS V13.01,2013-08-24 06:50:00,
2013-08-24 02:55:00,65.3,62.6,0.00,NNE,25,0.0,0.0,91,0.00,,---,0.00,VWS V13.01,2013-08-24 06:55:00,
2013-08-24 03:00:00,65.1,62.4,0.00,NNE,24,0.0,0.0,91,0.00,,---,0.00,VWS V13.01,2013-08-24 07:00:00,
2013-08-24 03:05:00,65.1,62.4,0.00,NNE,25,0.0,0.0,91,0.00,,---,0.00,VWS V13.01,2013-08-24 07:05:00,
2013-08-24 03:10:00,64.9,62.2,0.00,NNE,24,0.0,0.0,91,0.00,,---,0.00,VWS V13.01,2013-08-24 07:10:00,
2013-08-24 03:15:00,64.8,62.1,0.00,NNE,24,0.0,0.0,91,0.00,,---,0.00,VWS V13.01,2013-08-24 07:15:00,
2013-08-24 03:20:00,64.8,62.1,0.00,NNE,24,0.0,0.0,91,0.00,,---,0.00,VWS V13.01,2013-08-24 07:20:00,
2013-08-24 03:26:00,64.6,61.9,0.00,NNE,24,0.0,0.0,91,0.00,,---,0.00,VWS V13.01,2013-08-24 07:26:00,
2013-08-24 03:31:00,64.4,61.7,0.00,NNE,24,0.0,0.0,91,0.00,,---,0.00,VWS V13.01,2013-08-24 07:31:00,
2013-08-24 03:36:00,64.4,61.7,0.00,NNE,25,0.0,0.0,91,0.00,,---,0.00,VWS V13.01,2013-08-24 07:36:00,
2013-08-24 03:41:00,64.4,61.7,0.00,NNE,25,0.0,0.0,91,0.00,,---,0.00,VWS V13.01,2013-08-24 07:41:00,
2013-08-24 03:46:00,64.2,61.8,0.00,NNE,24,0.0,0.0,92,0.00,,---,0.00,VWS V13.01,2013-08-24 07:46:00,
2013-08-24 03:51:00,64.0,61.7,0.00,NNE,25,0.0,0.0,92,0.00,,---,0.00,VWS V13.01,2013-08-24 07:51:00,
2013-08-24 03:56:00,64.0,61.7,0.00,NNE,25,0.0,0.0,92,0.00,,---,0.00,VWS V13.01,2013-08-24 07:56:00,
2013-08-24 04:01:00,63.9,61.5,0.00,NNE,24,0.0,0.0,92,0.00,,---,0.00,VWS V13.01,2013-08-24 08:01:00,
2013-08-24 04:06:00,63.9,61.5,0.00,NNE,24,0.0,0.0,92,0.00,,---,0.00,VWS V13.01,2013-08-24 08:06:00,
2013-08-24 04:11:00,63.7,61.3,0.00,NNE,24,0.0,0.0,92,0.00,,---,0.00,VWS V13.01,2013-08-24 08:11:00,
2013-08-24 04:16:00,63.5,61.1,0.00,NNE,24,0.0,0.0,92,0.00,,---,0.00,VWS V13.01,2013-08-24 08:16:00,
2013-08-24 04:21:00,63.5,61.1,0.00,NNE,25,0.0,0.0,92,0.00,,---,0.00,VWS V13.01,2013-08-24 08:21:00,
2013-08-24 04:26:00,63.5,61.1,0.00,NNE,25,0.0,0.0,92,0.00,,---,0.00,VWS V13.01,2013-08-24 08:26:00,
2013-08-24 04:31:00,63.5,61.1,0.00,NNE,25,0.0,0.0,92,0.00,,---,0.00,VWS V13.01,2013-08-24 08:31:00,
2013-08-24 04:36:00,63.5,61.1,0.00,NNE,24,0.0,0.0,92,0.00,,---,0.00,VWS V13.01,2013-08-24 08:36:00,
2013-08-24 04:41:00,63.3,61.0,0.00,NNE,24,0.0,0.0,92,0.00,,---,0.00,VWS V13.01,2013-08-24 08:41:00,
2013-08-24 04:46:00,63.3,61.0,0.00,NNE,25,0.0,0.0,92,0.00,,---,0.00,VWS V13.01,2013-08-24 08:46:00,
2013-08-24 04:51:00,63.1,60.8,0.00,NNE,24,0.0,0.0,92,0.00,,---,0.00,VWS V13.01,2013-08-24 08:51:00,
2013-08-24 04:56:00,63.0,60.6,0.00,NNE,24,0.0,0.0,92,0.00,,---,0.00,VWS V13.01,2013-08-24 08:56:00,
2013-08-24 05:01:00,63.0,60.6,0.00,NNE,25,0.0,0.0,92,0.00,,---,0.00,VWS V13.01,2013-08-24 09:01:00,
2013-08-24 05:06:00,63.0,60.6,0.00,NNE,25,0.0,0.0,92,0.00,,---,0.00,VWS V13.01,2013-08-24 09:06:00,
2013-08-24 05:11:00,62.8,60.4,0.00,NNE,24,0.0,0.0,92,0.00,,---,0.00,VWS V13.01,2013-08-24 09:11:00,
2013-08-24 05:16:00,62.6,60.2,0.00,NNE,25,0.0,0.0,92,0.00,,---,0.00,VWS V13.01,2013-08-24 09:16:00,
2013-08-24 05:21:00,62.6,60.2,0.00,NNE,24,0.0,0.0,92,0.00,,---,0.00,VWS V13.01,2013-08-24 09:21:00,
2013-08-24 05:26:00,62.4,60.1,0.00,NNE,24,0.0,0.0,92,0.00,,---,0.00,VWS V13.01,2013-08-24 09:26:00,
2013-08-24 05:31:00,62.4,60.1,0.00,NNE,24,0.0,0.0,92,0.00,,---,0.00,VWS V13.01,2013-08-24 09:31:00,
2013-08-24 05:36:00,62.4,60.1,0.00,NNE,25,0.0,0.0,92,0.00,,---,0.00,VWS V13.01,2013-08-24 09:36:00,
2013-08-24 05:41:00,62.2,59.9,0.00,NNE,24,0.0,0.0,92,0.00,,---,0.00,VWS V13.01,2013-08-24 09:41:00,
2013-08-24 05:46:00,62.2,59.9,0.00,NNE,25,0.0,0.0,92,0.00,,---,0.00,VWS V13.01,2013-08-24 09:46:00,
2013-08-24 05:51:00,62.1,59.7,0.00,NNE,25,0.0,0.0,92,0.00,,---,0.00,VWS V13.01,2013-08-24 09:51:00,
2013-08-24 05:56:00,61.9,59.5,0.00,NNE,24,0.0,0.0,92,0.00,,---,0.00,VWS V13.01,2013-08-24 09:56:00,
2013-08-24 06:01:00,61.9,59.5,0.00,NNE,25,0.0,0.0,92,0.00,,---,0.00,VWS V13.01,2013-08-24 10:01:00,
2013-08-24 06:06:00,61.7,59.4,0.00,NNE,25,0.0,0.0,92,0.00,,---,0.00,VWS V13.01,2013-08-24 10:06:00,
2013-08-24 06:12:00,61.7,59.4,0.00,NNE,25,0.0,0.0,92,0.00,,---,0.00,VWS V13.01,2013-08-24 10:12:00,
2013-08-24 06:17:00,61.5,59.2,0.00,NNE,24,0.0,0.0,92,0.00,,---,0.00,VWS V13.01,2013-08-24 10:17:00,
2013-08-24 06:22:00,61.3,59.0,0.00,NNE,24,0.0,0.0,92,0.00,,---,0.00,VWS V13.01,2013-08-24 10:22:00,
2013-08-24 06:27:00,61.3,59.0,0.00,NNE,25,0.0,0.0,92,0.00,,---,0.00,VWS V13.01,2013-08-24 10:27:00,
2013-08-24 06:32:00,61.3,59.0,0.00,NNE,24,0.0,0.0,92,0.00,,---,0.00,VWS V13.01,2013-08-24 10:32:00,
2013-08-24 06:37:00,61.2,58.8,0.00,NNE,25,0.0,0.0,92,0.00,,---,0.00,VWS V13.01,2013-08-24 10:37:00,
2013-08-24 06:42:00,61.0,58.6,0.00,NNE,24,0.0,0.0,92,0.00,,---,0.00,VWS V13.01,2013-08-24 10:42:00,
2013-08-24 06:48:00,61.0,58.6,0.00,NNE,25,0.0,0.0,92,0.00,,---,0.00,VWS V13.01,2013-08-24 10:48:00,
2013-08-24 06:53:00,61.0,58.6,0.00,NNE,24,0.0,0.0,92,0.00,,---,0.00,VWS V13.01,2013-08-24 10:53:00,
2013-08-24 06:58:00,61.0,58.6,0.00,NNE,24,0.0,0.0,92,0.00,,---,0.00,VWS V13.01,2013-08-24 10:58:00,
2013-08-24 07:03:00,61.0,58.6,0.00,NNE,24,0.0,0.0,92,0.00,,---,0.00,VWS V13.01,2013-08-24 11:03:00,
2013-08-24 07:08:00,60.8,58.5,0.00,NNE,25,0.0,0.0,92,0.00,,---,0.00,VWS V13.01,2013-08-24 11:08:00,
2013-08-24 07:13:00,60.8,58.5,0.00,NNE,25,0.0,0.0,92,0.00,,---,0.00,VWS V13.01,2013-08-24 11:13:00,
2013-08-24 07:18:00,60.8,58.5,0.00,NNE,24,0.0,0.0,92,0.00,,---,0.00,VWS V13.01,2013-08-24 11:18:00,
2013-08-24 07:23:00,60.8,58.8,0.00,NNE,24,0.0,0.0,93,0.00,,---,0.00,VWS V13.01,2013-08-24 11:23:00,
2013-08-24 07:29:00,61.0,59.0,0.00,NNE,25,0.0,0.0,93,0.00,,---,0.00,VWS V13.01,2013-08-24 11:29:00,
2013-08-24 07:34:00,61.0,59.0,0.00,NNE,24,0.0,0.0,93,0.00,,---,0.00,VWS V13.01,2013-08-24 11:34:00,
2013-08-24 07:39:00,61.0,59.0,0.00,NNE,24,0.0,0.0,93,0.00,,---,0.00,VWS V13.01,2013-08-24 11:39:00,
2013-08-24 07:44:00,61.2,59.1,0.00,NNE,24,0.0,0.0,93,0.00,,---,0.00,VWS V13.01,2013-08-24 11:44:00,
2013-08-24 07:49:00,61.2,59.1,0.00,NNE,25,0.0,0.0,93,0.00,,---,0.00,VWS V13.01,2013-08-24 11:49:00,
2013-08-24 07:54:00,61.2,59.1,0.00,NNE,25,0.0,0.0,93,0.00,,---,0.00,VWS V13.01,2013-08-24 11:54:00,
2013-08-24 07:59:00,61.3,59.3,0.00,NNE,25,0.0,0.0,93,0.00,,---,0.00,VWS V13.01,2013-08-24 11:59:00,
2013-08-24 08:04:00,61.5,59.8,0.00,NNE,24,0.0,0.0,94,0.00,,---,0.00,VWS V13.01,2013-08-24 12:04:00,
2013-08-24 08:10:00,61.7,60.0,0.00,NNE,24,0.0,0.0,94,0.00,,---,0.00,VWS V13.01,2013-08-24 12:10:00,
2013-08-24 08:15:00,61.9,60.1,0.00,NNE,25,0.0,0.0,94,0.00,,---,0.00,VWS V13.01,2013-08-24 12:15:00,
2013-08-24 08:20:00,61.9,60.1,0.00,NNE,24,0.0,0.0,94,0.00,,---,0.00,VWS V13.01,2013-08-24 12:20:00,
2013-08-24 08:25:00,62.2,60.5,0.00,NNE,25,0.0,0.0,94,0.00,,---,0.00,VWS V13.01,2013-08-24 12:25:00,
2013-08-24 08:30:00,62.4,61.0,0.00,NNE,24,0.0,0.0,95,0.00,,---,0.00,VWS V13.01,2013-08-24 12:30:00,
2013-08-24 08:35:00,62.6,61.2,0.00,NNE,25,0.0,0.0,95,0.00,,---,0.00,VWS V13.01,2013-08-24 12:35:00,
2013-08-24 08:40:00,63.0,61.5,0.00,NNE,24,0.0,0.0,95,0.00,,---,0.00,VWS V13.01,2013-08-24 12:40:00,
2013-08-24 08:46:00,63.3,61.9,0.00,NNE,24,0.0,0.0,95,0.00,,---,0.00,VWS V13.01,2013-08-24 12:46:00,
2013-08-24 08:51:00,63.9,62.7,0.00,NNE,25,0.0,0.0,96,0.00,,---,0.00,VWS V13.01,2013-08-24 12:51:00,
2013-08-24 08:56:00,64.2,63.1,0.00,NNE,25,0.0,0.0,96,0.00,,---,0.00,VWS V13.01,2013-08-24 12:56:00,
2013-08-24 09:01:00,64.6,63.4,0.00,NNE,24,0.0,0.0,96,0.00,,---,0.00,VWS V13.01,2013-08-24 13:01:00,
2013-08-24 09:06:00,65.1,64.0,0.00,NNE,24,0.0,0.0,96,0.00,,---,0.00,VWS V13.01,2013-08-24 13:06:00,
2013-08-24 09:11:00,65.8,65.0,0.00,NNE,24,0.0,3.1,97,0.00,,---,0.00,VWS V13.01,2013-08-24 13:11:00,
2013-08-24 09:16:00,66.4,65.2,0.00,NNE,24,0.0,3.1,96,0.00,,---,0.00,VWS V13.01,2013-08-24 13:16:00,
2013-08-24 09:21:00,66.7,65.6,0.00,NNE,24,0.0,0.0,96,0.00,,---,0.00,VWS V13.01,2013-08-24 13:21:00,
2013-08-24 09:27:00,67.5,66.3,0.00,NNE,24,0.0,0.0,96,0.00,,---,0.00,VWS V13.01,2013-08-24 13:27:00,
2013-08-24 09:32:00,68.0,66.5,0.00,NNE,24,0.0,0.0,95,0.00,,---,0.00,VWS V13.01,2013-08-24 13:32:00,
2013-08-24 09:37:00,68.5,67.1,0.00,North,7,2.2,3.6,95,0.00,,---,0.00,VWS V13.01,2013-08-24 13:37:00,
2013-08-24 09:42:00,69.1,67.0,0.00,North,357,3.1,3.1,93,0.00,,---,0.00,VWS V13.01,2013-08-24 13:42:00,
2013-08-24 09:47:00,69.4,67.0,0.00,NNE,20,0.0,3.6,92,0.00,,---,0.00,VWS V13.01,2013-08-24 13:47:00,
2013-08-24 09:52:00,70.0,66.6,0.00,NNE,25,0.0,3.6,89,0.00,,---,0.00,VWS V13.01,2013-08-24 13:52:00,
2013-08-24 09:57:00,70.5,66.5,0.00,North,357,0.0,3.6,87,0.00,,---,0.00,VWS V13.01,2013-08-24 13:57:00,
2013-08-24 10:02:00,70.9,65.5,0.00,NW,325,2.7,4.5,83,0.00,,---,0.00,VWS V13.01,2013-08-24 14:02:00,
2013-08-24 10:07:00,71.4,65.3,0.00,NE,46,3.1,4.5,81,0.00,,---,0.00,VWS V13.01,2013-08-24 14:07:00,
2013-08-24 10:13:00,71.6,59.7,0.00,NNE,29,2.7,4.5,66,0.00,,---,0.00,VWS V13.01,2013-08-24 14:13:00,
2013-08-24 10:18:00,72.0,60.4,0.00,NNE,24,0.0,4.5,67,0.00,,---,0.00,VWS V13.01,2013-08-24 14:18:00,
2013-08-24 10:23:00,72.3,60.8,0.00,NNE,28,3.6,4.0,67,0.00,,---,0.00,VWS V13.01,2013-08-24 14:23:00,
2013-08-24 10:28:00,72.7,60.7,0.00,North,11,3.1,5.8,66,0.00,,---,0.00,VWS V13.01,2013-08-24 14:28:00,
2013-08-24 10:33:00,73.0,59.3,0.00,North,8,2.7,5.8,62,0.00,,---,0.00,VWS V13.01,2013-08-24 14:33:00,
2013-08-24 10:38:00,73.4,58.7,0.00,SSW,199,0.0,5.8,60,0.00,,---,0.00,VWS V13.01,2013-08-24 14:38:00,
2013-08-24 10:43:00,73.8,58.5,0.00,NNW,339,3.6,3.6,59,0.00,,---,0.00,VWS V13.01,2013-08-24 14:43:00,
2013-08-24 10:49:00,74.5,58.8,0.00,SSW,211,2.2,3.6,58,0.00,,---,0.00,VWS V13.01,2013-08-24 14:49:00,
2013-08-24 10:54:00,74.7,58.4,0.00,North,0,2.7,4.5,57,0.00,,---,0.00,VWS V13.01,2013-08-24 14:54:00,
2013-08-24 10:59:00,75.2,57.4,0.00,NE,47,0.0,4.5,54,0.00,,---,0.00,VWS V13.01,2013-08-24 14:59:00,
2013-08-24 11:04:00,75.4,54.9,0.00,NW,323,2.7,3.6,49,0.00,,---,0.00,VWS V13.01,2013-08-24 15:04:00,
2013-08-24 11:09:00,75.4,54.3,0.00,North,357,0.0,4.0,48,0.00,,---,0.00,VWS V13.01,2013-08-24 15:09:00,
2013-08-24 11:14:00,75.7,54.7,0.00,North,353,0.0,4.0,48,0.00,,---,0.00,VWS V13.01,2013-08-24 15:14:00,
2013-08-24 11:19:00,75.9,54.8,0.00,North,4,0.0,4.0,48,0.00,,---,0.00,VWS V13.01,2013-08-24 15:19:00,
2013-08-24 11:24:00,76.3,54.6,0.00,North,353,3.1,4.0,47,0.00,,---,0.00,VWS V13.01,2013-08-24 15:24:00,
2013-08-24 11:29:00,76.5,54.8,0.00,NNE,33,3.6,4.0,47,0.00,,---,0.00,VWS V13.01,2013-08-24 15:29:00,
2013-08-24 11:34:00,76.8,52.7,0.00,NNE,23,3.1,4.0,43,0.00,,---,0.00,VWS V13.01,2013-08-24 15:34:00,
2013-08-24 11:39:00,76.8,52.0,0.00,NNE,29,2.2,5.4,42,0.00,,---,0.00,VWS V13.01,2013-08-24 15:39:00,
2013-08-24 11:44:00,77.4,53.8,0.00,NE,38,3.6,3.6,44,0.00,,---,0.00,VWS V13.01,2013-08-24 15:44:00,
2013-08-24 11:49:00,77.4,50.5,0.00,North,353,0.0,3.6,39,0.00,,---,0.00,VWS V13.01,2013-08-24 15:49:00,
2013-08-24 11:58:00,78.1,54.4,0.00,NNW,346,0.0,5.4,44,0.00,,---,0.00,VWS V13.01,2013-08-24 15:58:00,
2013-08-24 12:03:00,78.3,52.0,0.00,NNW,346,3.1,4.9,40,0.00,,---,0.00,VWS V13.01,2013-08-24 16:03:00,
2013-08-24 12:08:00,78.4,52.1,0.00,North,353,2.7,5.4,40,0.00,,---,0.00,VWS V13.01,2013-08-24 16:08:00,
2013-08-24 12:13:00,78.8,53.1,0.00,NNE,16,2.2,5.4,41,0.00,,---,0.00,VWS V13.01,2013-08-24 16:13:00,
2013-08-24 12:18:00,79.3,54.3,0.00,NE,43,3.1,5.4,42,0.00,,---,0.00,VWS V13.01,2013-08-24 16:18:00,
2013-08-24 12:23:00,79.7,53.9,0.00,NNW,329,3.1,4.0,41,0.00,,---,0.00,VWS V13.01,2013-08-24 16:23:00,
2013-08-24 12:28:00,80.1,53.6,0.00,NNE,25,2.7,4.0,40,0.00,,---,0.00,VWS V13.01,2013-08-24 16:28:00,
2013-08-24 12:33:00,80.4,54.6,0.00,NNW,330,2.7,4.0,41,0.00,,---,0.00,VWS V13.01,2013-08-24 16:33:00,
2013-08-24 12:38:00,80.6,53.4,0.00,ENE,75,2.7,4.0,39,0.00,,---,0.00,VWS V13.01,2013-08-24 16:38:00,
2013-08-24 12:43:00,80.8,54.9,0.00,NNE,24,2.2,4.0,41,0.00,,---,0.00,VWS V13.01,2013-08-24 16:43:00,
2013-08-24 12:48:00,81.0,55.1,0.00,NNW,340,3.1,4.0,41,0.00,,---,0.00,VWS V13.01,2013-08-24 16:48:00,
2013-08-24 12:53:00,81.1,53.9,0.00,North,353,2.2,4.0,39,0.00,,---,0.00,VWS V13.01,2013-08-24 16:53:00,
2013-08-24 12:58:00,81.1,52.4,0.00,NE,41,4.9,6.3,37,0.00,,---,0.00,VWS V13.01,2013-08-24 16:58:00,
2013-08-24 13:03:00,80.8,48.2,0.00,North,7,2.7,5.8,32,0.00,,---,0.00,VWS V13.01,2013-08-24 17:03:00,
2013-08-24 13:08:00,81.1,51.7,0.00,NE,47,6.3,6.3,36,0.00,,---,0.00,VWS V13.01,2013-08-24 17:08:00,
2013-08-24 13:13:00,81.3,51.1,0.00,NNE,33,3.1,6.3,35,0.00,,---,0.00,VWS V13.01,2013-08-24 17:13:00,
2013-08-24 13:18:00,81.5,48.0,0.00,North,353,3.6,6.3,31,0.00,,---,0.00,VWS V13.01,2013-08-24 17:18:00,
2013-08-24 13:23:00,81.9,50.0,0.00,NNE,31,2.7,4.9,33,0.00,,---,0.00,VWS V13.01,2013-08-24 17:23:00,
2013-08-24 13:28:00,82.0,50.9,0.00,NE,53,2.7,5.4,34,0.00,,---,0.00,VWS V13.01,2013-08-24 17:28:00,
2013-08-24 13:33:00,82.6,48.0,0.00,SW,230,0.0,5.4,30,0.00,,---,0.00,VWS V13.01,2013-08-24 17:33:00,
2013-08-24 13:38:00,82.9,49.2,0.00,North,4,2.2,6.3,31,0.00,,---,0.00,VWS V13.01,2013-08-24 17:38:00,
2013-08-24 13:43:00,83.3,49.5,0.00,ESE,114,3.6,4.0,31,0.00,,---,0.00,VWS V13.01,2013-08-24 17:43:00,
2013-08-24 13:48:00,83.5,47.9,0.00,NE,51,4.0,8.7,29,0.00,,---,0.00,VWS V13.01,2013-08-24 17:48:00,
2013-08-24 13:53:00,83.7,49.0,0.00,SE,144,4.9,8.7,30,0.00,,---,0.00,VWS V13.01,2013-08-24 17:53:00,
2013-08-24 13:58:00,83.8,49.1,0.00,North,357,2.7,8.7,30,0.00,,---,0.00,VWS V13.01,2013-08-24 17:58:00,
2013-08-24 14:03:00,83.7,49.8,0.00,NE,38,3.6,5.8,31,0.00,,---,0.00,VWS V13.01,2013-08-24 18:03:00,
2013-08-24 14:08:00,83.7,49.8,0.00,NE,45,3.1,5.8,31,0.00,,---,0.00,VWS V13.01,2013-08-24 18:08:00,
2013-08-24 14:13:00,84.0,49.3,0.00,ENE,59,3.1,5.8,30,0.00,,---,0.00,VWS V13.01,2013-08-24 18:13:00,
2013-08-24 14:19:00,84.2,50.3,0.00,North,357,3.1,5.8,31,0.00,,---,0.00,VWS V13.01,2013-08-24 18:19:00,
2013-08-24 14:24:00,84.4,50.5,0.00,North,357,2.2,4.0,31,0.00,,---,0.00,VWS V13.01,2013-08-24 18:24:00,
2013-08-24 14:29:00,84.4,49.6,0.00,SSW,194,5.4,5.4,30,0.00,,---,0.00,VWS V13.01,2013-08-24 18:29:00,
2013-08-24 14:34:00,84.7,49.9,0.00,NNE,26,0.0,5.4,30,0.00,,---,0.00,VWS V13.01,2013-08-24 18:34:00,
2013-08-24 14:39:00,84.9,50.9,0.00,NNW,333,3.6,5.4,31,0.00,,---,0.00,VWS V13.01,2013-08-24 18:39:00,
2013-08-24 14:44:00,85.1,50.2,0.00,SW,235,3.1,5.4,30,0.00,,---,0.00,VWS V13.01,2013-08-24 18:44:00,
2013-08-24 14:49:00,85.1,49.3,0.00,North,0,2.2,5.4,29,0.00,,---,0.00,VWS V13.01,2013-08-24 18:49:00,
2013-08-24 14:54:00,84.6,49.8,0.00,NNE,19,2.2,5.4,30,0.00,,---,0.00,VWS V13.01,2013-08-24 18:54:00,
2013-08-24 14:59:00,84.2,51.2,0.00,NNE,27,2.2,8.3,32,0.00,,---,0.00,VWS V13.01,2013-08-24 18:59:00,
2013-08-24 15:04:00,84.7,49.9,0.00,NW,311,2.7,5.8,30,0.00,,---,0.00,VWS V13.01,2013-08-24 19:04:00,
2013-08-24 15:09:00,85.1,51.1,0.00,WSW,240,0.0,5.8,31,0.00,,---,0.00,VWS V13.01,2013-08-24 19:09:00,
2013-08-24 15:14:00,85.8,50.8,0.00,West,266,2.7,5.8,30,0.00,,---,0.00,VWS V13.01,2013-08-24 19:14:00,
2013-08-24 15:19:00,85.1,49.3,0.00,ENE,60,4.9,5.8,29,0.00,,---,0.00,VWS V13.01,2013-08-24 19:19:00,
2013-08-24 15:24:00,83.3,49.5,0.00,WNW,300,2.7,3.6,31,0.00,,---,0.00,VWS V13.01,2013-08-24 19:24:00,
2013-08-24 15:29:00,83.1,51.9,0.00,SW,214,2.7,4.0,34,0.00,,---,0.00,VWS V13.01,2013-08-24 19:29:00,
2013-08-24 15:34:00,83.8,50.0,0.00,NE,36,2.7,4.0,31,0.00,,---,0.00,VWS V13.01,2013-08-24 19:34:00,
2013-08-24 15:39:00,84.6,53.1,0.00,SW,214,3.1,4.0,34,0.00,,---,0.00,VWS V13.01,2013-08-24 19:39:00,
2013-08-24 15:45:00,85.3,51.2,0.00,NNE,26,2.2,5.8,31,0.00,,---,0.00,VWS V13.01,2013-08-24 19:45:00,
2013-08-24 15:50:00,84.0,50.2,0.00,SW,226,0.0,5.8,31,0.00,,---,0.00,VWS V13.01,2013-08-24 19:50:00,
2013-08-24 15:55:00,82.9,51.7,0.00,NW,315,0.0,5.8,34,0.00,,---,0.00,VWS V13.01,2013-08-24 19:55:00,
2013-08-24 16:00:00,82.2,52.6,0.00,NNE,19,0.0,5.8,36,0.00,,---,0.00,VWS V13.01,2013-08-24 20:00:00,
2013-08-24 16:05:00,81.7,53.6,0.00,NE,49,0.0,0.0,38,0.00,,---,0.00,VWS V13.01,2013-08-24 20:05:00,
2013-08-24 16:10:00,81.3,54.7,0.00,North,0,0.0,0.0,40,0.00,,---,0.00,VWS V13.01,2013-08-24 20:10:00,
2013-08-24 16:15:00,82.0,56.7,0.00,North,353,2.7,2.7,42,0.00,,---,0.00,VWS V13.01,2013-08-24 20:15:00,
2013-08-24 16:20:00,82.9,56.8,0.00,East,80,0.0,0.0,41,0.00,,---,0.00,VWS V13.01,2013-08-24 20:20:00,
2013-08-24 16:25:00,82.4,52.8,0.00,NW,313,0.0,4.0,36,0.00,,---,0.00,VWS V13.01,2013-08-24 20:25:00,
2013-08-24 16:30:00,81.1,53.2,0.00,SW,231,2.2,4.0,38,0.00,,---,0.00,VWS V13.01,2013-08-24 20:30:00,
2013-08-24 16:35:00,80.2,54.4,0.00,SW,219,0.0,4.0,41,0.00,,---,0.00,VWS V13.01,2013-08-24 20:35:00,
2013-08-24 16:40:00,79.9,54.8,0.00,NNE,30,0.0,0.0,42,0.00,,---,0.00,VWS V13.01,2013-08-24 20:40:00,
2013-08-24 16:45:00,80.4,56.5,0.00,NNW,342,0.0,0.0,44,0.00,,---,0.00,VWS V13.01,2013-08-24 20:45:00,
2013-08-24 16:50:00,81.0,57.0,0.00,NE,52,0.0,0.0,44,0.00,,---,0.00,VWS V13.01,2013-08-24 20:50:00,
2013-08-24 16:55:00,81.0,55.1,0.00,NW,323,3.1,3.6,41,0.00,,---,0.00,VWS V13.01,2013-08-24 20:55:00,
2013-08-24 17:00:00,81.1,53.9,0.00,WNW,295,0.0,0.0,39,0.00,,---,0.00,VWS V13.01,2013-08-24 21:00:00,
2013-08-24 17:05:00,81.1,53.2,0.00,SW,222,0.0,4.0,38,0.00,,---,0.00,VWS V13.01,2013-08-24 21:05:00,
2013-08-24 17:10:00,81.0,50.0,0.00,SE,126,2.7,5.4,34,0.00,,---,0.00,VWS V13.01,2013-08-24 21:10:00,
2013-08-24 17:15:00,80.4,49.5,0.00,NNW,329,2.2,5.4,34,0.00,,---,0.00,VWS V13.01,2013-08-24 21:15:00,
2013-08-24 17:20:00,79.5,51.0,0.00,WSW,256,0.0,0.0,37,0.00,,---,0.00,VWS V13.01,2013-08-24 21:20:00,
2013-08-24 17:25:00,78.6,53.6,0.00,WSW,256,0.0,0.0,42,0.00,,---,0.00,VWS V13.01,2013-08-24 21:25:00,
2013-08-24 17:30:00,77.7,54.1,0.00,WSW,256,0.0,0.0,44,0.00,,---,0.00,VWS V13.01,2013-08-24 21:30:00,
2013-08-24 17:35:00,77.2,54.8,0.00,WSW,256,0.0,0.0,46,0.00,,---,0.00,VWS V13.01,2013-08-24 21:35:00,
2013-08-24 17:40:00,77.0,55.8,0.00,WSW,256,0.0,0.0,48,0.00,,---,0.00,VWS V13.01,2013-08-24 21:40:00,
2013-08-24 17:45:00,76.6,56.1,0.00,North,357,2.7,3.6,49,0.00,,---,0.00,VWS V13.01,2013-08-24 21:45:00,
2013-08-24 17:50:00,76.5,53.6,0.00,NW,310,0.0,3.6,45,0.00,,---,0.00,VWS V13.01,2013-08-24 21:50:00,
2013-08-24 17:56:00,76.6,53.7,0.00,NW,306,0.0,3.6,45,0.00,,---,0.00,VWS V13.01,2013-08-24 21:56:00,
2013-08-24 18:01:00,76.6,54.3,0.00,NW,306,0.0,0.0,46,0.00,,---,0.00,VWS V13.01,2013-08-24 22:01:00,
2013-08-24 18:06:00,76.3,55.2,0.00,NW,306,0.0,0.0,48,0.00,,---,0.00,VWS V13.01,2013-08-24 22:06:00,
2013-08-24 18:11:00,76.1,55.0,0.00,NW,306,0.0,0.0,48,0.00,,---,0.00,VWS V13.01,2013-08-24 22:11:00,
2013-08-24 18:16:00,75.7,55.2,0.00,NW,306,0.0,0.0,49,0.00,,---,0.00,VWS V13.01,2013-08-24 22:16:00,
2013-08-24 18:21:00,75.6,56.7,0.00,NW,306,0.0,0.0,52,0.00,,---,0.00,VWS V13.01,2013-08-24 22:21:00,
2013-08-24 18:26:00,75.4,56.5,0.00,SSE,167,0.0,3.1,52,0.00,,---,0.00,VWS V13.01,2013-08-24 22:26:00,
2013-08-24 18:31:00,75.4,57.1,0.00,SW,229,0.0,3.1,53,0.00,,---,0.00,VWS V13.01,2013-08-24 22:31:00,
2013-08-24 18:36:00,75.4,58.1,0.00,SW,228,0.0,3.1,55,0.00,,---,0.00,VWS V13.01,2013-08-24 22:36:00,
2013-08-24 18:41:00,75.4,58.6,0.00,SSE,155,0.0,0.0,56,0.00,,---,0.00,VWS V13.01,2013-08-24 22:41:00,
2013-08-24 18:46:00,75.2,56.9,0.00,ENE,58,2.7,2.7,53,0.00,,---,0.00,VWS V13.01,2013-08-24 22:46:00,
2013-08-24 18:51:00,75.2,56.9,0.00,ENE,57,0.0,3.6,53,0.00,,---,0.00,VWS V13.01,2013-08-24 22:51:00,
2013-08-24 18:56:00,75.0,57.8,0.00,ENE,57,0.0,3.6,55,0.00,,---,0.00,VWS V13.01,2013-08-24 22:56:00,
2013-08-24 19:01:00,74.7,57.9,0.00,East,96,0.0,0.0,56,0.00,,---,0.00,VWS V13.01,2013-08-24 23:01:00,
2013-08-24 19:06:00,74.5,58.3,0.00,East,96,0.0,0.0,57,0.00,,---,0.00,VWS V13.01,2013-08-24 23:06:00,
2013-08-24 19:11:00,74.1,58.4,0.00,East,96,0.0,0.0,58,0.00,,---,0.00,VWS V13.01,2013-08-24 23:11:00,
2013-08-24 19:16:00,73.8,59.0,0.00,East,96,0.0,0.0,60,0.00,,---,0.00,VWS V13.01,2013-08-24 23:16:00,
2013-08-24 19:21:00,73.4,58.7,0.00,East,96,0.0,0.0,60,0.00,,---,0.00,VWS V13.01,2013-08-24 23:21:00,
2013-08-24 19:26:00,73.0,58.3,0.00,East,95,0.0,0.0,60,0.00,,---,0.00,VWS V13.01,2013-08-24 23:26:00,
2013-08-24 19:31:00,72.5,57.8,0.00,East,96,0.0,0.0,60,0.00,,---,0.00,VWS V13.01,2013-08-24 23:31:00,
2013-08-24 19:36:00,72.1,58.0,0.00,East,96,0.0,0.0,61,0.00,,---,0.00,VWS V13.01,2013-08-24 23:36:00,
2013-08-24 19:41:00,72.0,58.7,0.00,East,96,0.0,0.0,63,0.00,,---,0.00,VWS V13.01,2013-08-24 23:41:00,
2013-08-24 19:46:00,71.6,58.8,0.00,East,95,0.0,0.0,64,0.00,,---,0.00,VWS V13.01,2013-08-24 23:46:00,
2013-08-24 19:51:00,71.4,59.0,0.00,East,96,0.0,0.0,65,0.00,,---,0.00,VWS V13.01,2013-08-24 23:51:00,
2013-08-24 19:56:00,71.1,59.1,0.00,East,96,0.0,0.0,66,0.00,,---,0.00,VWS V13.01,2013-08-24 23:56:00,
2013-08-24 20:01:00,70.9,59.0,0.00,East,96,0.0,0.0,66,0.00,,---,0.00,VWS V13.01,2013-08-25 00:01:00,
2013-08-24 20:07:00,70.5,59.0,0.00,East,96,0.0,0.0,67,0.00,,---,0.00,VWS V13.01,2013-08-25 00:07:00,
2013-08-24 20:12:00,70.3,59.3,0.00,East,95,0.0,0.0,68,0.00,,---,0.00,VWS V13.01,2013-08-25 00:12:00,
2013-08-24 20:17:00,70.0,59.3,0.00,East,96,0.0,0.0,69,0.00,,---,0.00,VWS V13.01,2013-08-25 00:17:00,
2013-08-24 20:22:00,69.8,59.2,0.00,East,96,0.0,0.0,69,0.00,,---,0.00,VWS V13.01,2013-08-25 00:22:00,
2013-08-24 20:27:00,69.4,59.2,0.00,East,95,0.0,0.0,70,0.00,,---,0.00,VWS V13.01,2013-08-25 00:27:00,
2013-08-24 20:32:00,69.3,59.5,0.00,East,96,0.0,0.0,71,0.00,,---,0.00,VWS V13.01,2013-08-25 00:32:00,
2013-08-24 20:37:00,69.1,59.3,0.00,East,96,0.0,0.0,71,0.00,,---,0.00,VWS V13.01,2013-08-25 00:37:00,
2013-08-24 20:42:00,68.9,59.1,0.00,East,96,0.0,0.0,71,0.00,,---,0.00,VWS V13.01,2013-08-25 00:42:00,
2013-08-24 20:47:00,68.7,59.3,0.00,East,96,0.0,0.0,72,0.00,,---,0.00,VWS V13.01,2013-08-25 00:47:00,
2013-08-24 20:52:00,68.5,59.2,0.00,East,96,0.0,0.0,72,0.00,,---,0.00,VWS V13.01,2013-08-25 00:52:00,
2013-08-24 20:57:00,68.4,59.0,0.00,East,96,0.0,0.0,72,0.00,,---,0.00,VWS V13.01,2013-08-25 00:57:00,
2013-08-24 21:02:00,68.2,58.8,0.00,East,95,0.0,0.0,72,0.00,,---,0.00,VWS V13.01,2013-08-25 01:02:00,
2013-08-24 21:07:00,68.0,59.0,0.00,East,95,0.0,0.0,73,0.00,,---,0.00,VWS V13.01,2013-08-25 01:07:00,
2013-08-24 21:12:00,67.8,58.9,0.00,East,96,0.0,0.0,73,0.00,,---,0.00,VWS V13.01,2013-08-25 01:12:00,
2013-08-24 21:17:00,67.6,59.1,0.00,East,96,0.0,0.0,74,0.00,,---,0.00,VWS V13.01,2013-08-25 01:17:00,
2013-08-24 21:22:00,67.5,59.3,0.00,East,96,0.0,0.0,75,0.00,,---,0.00,VWS V13.01,2013-08-25 01:22:00,
2013-08-24 21:27:00,67.1,58.9,0.00,East,96,0.0,0.0,75,0.00,,---,0.00,VWS V13.01,2013-08-25 01:27:00,
2013-08-24 21:32:00,66.9,58.8,0.00,East,96,0.0,0.0,75,0.00,,---,0.00,VWS V13.01,2013-08-25 01:32:00,
2013-08-24 21:37:00,66.9,59.1,0.00,East,96,0.0,0.0,76,0.00,,---,0.00,VWS V13.01,2013-08-25 01:37:00,
2013-08-24 21:42:00,66.7,58.9,0.00,East,96,0.0,0.0,76,0.00,,---,0.00,VWS V13.01,2013-08-25 01:42:00,
2013-08-24 21:47:00,66.6,58.8,0.00,East,96,0.0,0.0,76,0.00,,---,0.00,VWS V13.01,2013-08-25 01:47:00,
2013-08-24 21:52:00,66.4,59.0,0.00,East,96,0.0,0.0,77,0.00,,---,0.00,VWS V13.01,2013-08-25 01:52:00,
2013-08-24 21:57:00,66.4,59.3,0.00,East,96,0.0,0.0,78,0.00,,---,0.00,VWS V13.01,2013-08-25 01:57:00,
2013-08-24 22:02:00,66.4,59.3,0.00,East,95,0.0,0.0,78,0.00,,---,0.00,VWS V13.01,2013-08-25 02:02:00,
2013-08-24 22:07:00,66.2,59.2,0.00,East,96,0.0,0.0,78,0.00,,---,0.00,VWS V13.01,2013-08-25 02:07:00,
2013-08-24 22:12:00,66.2,59.5,0.00,East,96,0.0,0.0,79,0.00,,---,0.00,VWS V13.01,2013-08-25 02:12:00,
2013-08-24 22:17:00,66.0,59.3,0.00,East,96,0.0,0.0,79,0.00,,---,0.00,VWS V13.01,2013-08-25 02:17:00,
2013-08-24 22:22:00,65.8,59.2,0.00,East,96,0.0,0.0,79,0.00,,---,0.00,VWS V13.01,2013-08-25 02:22:00,
2013-08-24 22:28:00,65.8,59.2,0.00,East,96,0.0,0.0,79,0.00,,---,0.00,VWS V13.01,2013-08-25 02:28:00,
2013-08-24 22:33:00,65.7,59.3,0.00,East,96,0.0,0.0,80,0.00,,---,0.00,VWS V13.01,2013-08-25 02:33:00,
2013-08-24 22:38:00,65.7,59.3,0.00,East,96,0.0,0.0,80,0.00,,---,0.00,VWS V13.01,2013-08-25 02:38:00,
2013-08-24 22:43:00,65.5,59.2,0.00,East,96,0.0,0.0,80,0.00,,---,0.00,VWS V13.01,2013-08-25 02:43:00,
2013-08-24 22:48:00,65.3,59.0,0.00,East,96,0.0,0.0,80,0.00,,---,0.00,VWS V13.01,2013-08-25 02:48:00,
2013-08-24 22:53:00,65.3,59.0,0.00,East,96,0.0,0.0,80,0.00,,---,0.00,VWS V13.01,2013-08-25 02:53:00,
2013-08-24 22:58:00,65.1,58.8,0.00,East,95,0.0,0.0,80,0.00,,---,0.00,VWS V13.01,2013-08-25 02:58:00,
2013-08-24 23:03:00,65.1,59.2,0.00,East,96,0.0,0.0,81,0.00,,---,0.00,VWS V13.01,2013-08-25 03:03:00,
2013-08-24 23:08:00,64.9,59.0,0.00,East,96,0.0,0.0,81,0.00,,---,0.00,VWS V13.01,2013-08-25 03:08:00,
2013-08-24 23:13:00,64.9,59.0,0.00,East,96,0.0,0.0,81,0.00,,---,0.00,VWS V13.01,2013-08-25 03:13:00,
2013-08-24 23:18:00,64.9,59.0,0.00,East,96,0.0,0.0,81,0.00,,---,0.00,VWS V13.01,2013-08-25 03:18:00,
2013-08-24 23:23:00,64.8,58.8,0.00,East,96,0.0,0.0,81,0.00,,---,0.00,VWS V13.01,2013-08-25 03:23:00,
2013-08-24 23:28:00,64.6,58.6,0.00,East,96,0.0,0.0,81,0.00,,---,0.00,VWS V13.01,2013-08-25 03:28:00,
2013-08-24 23:33:00,64.4,58.5,0.00,East,96,0.0,0.0,81,0.00,,---,0.00,VWS V13.01,2013-08-25 03:33:00,
2013-08-24 23:38:00,64.4,58.8,0.00,East,96,0.0,0.0,82,0.00,,---,0.00,VWS V13.01,2013-08-25 03:38:00,
2013-08-24 23:43:00,64.4,58.8,0.00,East,96,0.0,0.0,82,0.00,,---,0.00,VWS V13.01,2013-08-25 03:43:00,
2013-08-24 23:48:00,64.4,58.8,0.00,East,96,0.0,0.0,82,0.00,,---,0.00,VWS V13.01,2013-08-25 03:48:00,
2013-08-24 23:54:00,64.4,58.8,0.00,East,96,0.0,0.0,82,0.00,,---,0.00,VWS V13.01,2013-08-25 03:54:00,
2013-08-24 23:59:00,64.2,59.0,0.00,East,96,0.0,0.0,83,0.00,,---,0.00,VWS V13.01,2013-08-25 03:59:00,